STARLINK-35907 (66498 NORAD) Tracking and Keplerian Element Data

This shows tracking and keplerian element data for the satellite.

Feedback or suggestion? Click here.




ElementValue
Catalog66498
NameSTARLINK-35907
Epoch Orbit667
Epoch Day353.96074863
Epoch Year2025
RAAN83.7144
Inclination43.0046
Eccentricity0.0001338
Argument of Perigee267.093
Mean Anonmoly92.9773
Mean Motion15.40767483
Decay Rate0.00038615
L11 66498U 25263P 25353.96074863 .00038615 00000+0 92493-3 0 9994
L22 66498 43.0046 83.7144 0001338 267.0930 92.9773 15.40767483 6672



Live tracking and technical data element details for STARLINK-35907 (NORAD 66498). STARLINK-35907 can be tracked NOW for your location showing map with azimuth and elevation plus other details from your city location.







IsCatalogInMostPopularTable: catalog: 66498, numindb: 7
Update: records affected: 1



GetName: 66498 STARLINK-35907

Hit Count: updated at: Sat, 11 Apr 2026 21:14:14 GMT